Location: Austin
(30.3000°N, 97.7500°W)
Time: 07:06:32
(UTC-05:00)

Envisat - Pass Details

Date: 19 September 2023
Orbit: 763 x 764 km, 98.2° (Epoch: 25 September)

Event Time Altitude Azimuth Distance (km) Brightness Sun altitude
Rises 04:56:49 0° 14° (NNE) 3,229 6.7 -30.4°
Reaches altitude 10° 04:59:08 10° 16° (NNE) 2,300 5.9 -30.0°
Enters shadow 05:03:44 68° 58° (ENE) 819 3.2 -29.0°
